OBJECT AQ, 67286

Orbit data source: Space-Track

You're viewing an Uncataloged Satellite

Recently launched and/or uncataloged satellites may have evolving metadata. Metadata may include but not limited to: Owner, Maufacturer, Bus, Motor, and Mission.

OBJECT AQ, 67286 is a satellite in SSO that was launched on Sun, 28 Dec 2025 UTC via a SOYUZ-2-1B launch vehicle from the Vostochny Cosmodrome (VOSTO). Unknown objects in Earth's orbit typically refer to objects detected orbiting the Earth but have not yet been identified or cataloged. These objects could be anything from previously untracked satellites, spent rocket stages, debris from satellite collisions, or even natural meteoroids temporarily captured by Earth's gravity.

Loading next visibility...
Identifier
67286, 2025-313AQ
Orbit
SSO
Country
Flag of TBDTBD
Related business
Manufacturer
OKB5P
Mission
Operational Amateur Imaging
Bus & Motor
CUBESAT 3U, Unknown motor
Mass
3 kg wet, 3 kg dry
Launch date (UTC)
2025-12-28 (6 months ago)
Launch vehicle
SOYUZ-2-1B
Launch site
Vostochny Cosmodrome (VOSTO)
Object type
Unknown
Shape & HBR
Box, 0.2 m
Radar Cross Section
0.240 m², Medium (>0.1 m² and < 1m²)

Expand to show TLE details & history
Last TLE update: 17 hours ago

TLE from 17 hours ago
0 OBJECT AQ
1 67286U 25313AQ  26171.15981984  .00006613  00000-0  27341-3 0  9991
2 67286  97.3931 246.0517 0008971 353.6022   6.5100 15.24277757 26427
Epoch: 2026-06-20T03:50Z
TLE epoch observation values (Epoch: 2026-06-20T03:50:08.434Z)
Latitude
0.00005°
Longitude
-79.86189°
Altitude
489.926 km
Speed
7.623 km/s
True Right ascension
16h 24m 12s
True Declination
0° 00' 00"
Sunlit
Object was in full shadow at epoch
Visualization orbit readout
Latitude
Unknown
Longitude
Unknown
Altitude
Unknown
Speed
Unknown
Apparent Right ascension
Unknown
Apparent Declination
Unknown
Sunlit
N/A
Visualization observer readout
Local Sidereal Time
07:18:36
Azimuth
Unknown
Elevation
Unknown
Doppler factor
Unknown
Orbital elements
Apogee altitude
496.076 km
Perigee altitude
483.753 km
Semi-major axis
6,868.052 km
Eccentricity
0.0009
Inclination
97.3931°
RAAN
246.0517°
Arg. of periapsis
353.6022°
True anomaly
6.52167°
Mean anomaly
6.51°
Eccentric anomaly
6.51583°
Mean motion
3.81323 °/min
Orbital period
94.41 mins
BSTAR
0.00027341
Loading maneuver chart data...
Computing Atmospheric mass density...
Loading historical data...
Loading historical data...
Loading historical data...
Loading historical data...
Loading historical data...
Loading historical data...
Loading historical data...

Documentation

Showing up to 5 results
|